This demonstration page uses our WeatherBlox Daily Observations layout. Learn more.

38.89511, -77.03637

Hourly Observations for April 24, 2015

Temp ( °F °C ) Dew Point ( °F °C ) Humidity (%) Winds ( mph kmh ) Pressure ( in mb ) Visibility ( mi km ) Precip ( " mm )
12:52 am 00:52 Mostly Clear 46 8 27 -3 46 46 NNW 10 17 29.97 1015 10 16.09344 0 0
1:52 am 01:52 Partly Cloudy 46 8 21 -6 37 37 NW 12 19 29.97 1015 10 16.09344 0 0
2:52 am 02:52 Mostly Cloudy 45 7 25 -4 46 46 NW 12 19 29.97 1015 10 16.09344 0 0
3:52 am 03:52 Mostly Clear 43 6 25 -4 49 49 N 16 26 30 1016 10 16.09344 0 0
4:52 am 04:52 Mostly Clear 41 5 21 -6 45 45 N 15 24 30 1016 10 16.09344 0 0
5:52 am 05:52 Partly Cloudy 39 4 18 -8 42 42 N 15 24 30.03 1017 10 16.09344 0 0
6:52 am 06:52 Partly Cloudy 39 4 19 -7 45 45 N 12 19 30.03 1017 10 16.09344 0 0
7:52 am 07:52 Mostly Sunny 45 7 18 -8 34 34 N 17 28 30.06 1018 10 16.09344 0 0
8:52 am 08:52 Mostly Sunny 45 7 18 -8 34 34 NNW 17 28 30.06 1018 10 16.09344 0 0
9:52 am 09:52 Mostly Sunny 46 8 16 -9 29 29 NNW 17 28 30.03 1017 10 16.09344 0 0
10:52 am 10:52 Mostly Sunny 50 10 21 -6 32 32 NW 15 24 30.03 1017 10 16.09344 0 0
11:52 am 11:52 Sunny 54 12 21 -6 28 28 WNW 16 26 30 1016 10 16.09344 0 0
12:52 pm 12:52 Mostly Sunny 55 13 21 -6 26 26 NW 16 26 30 1016 10 16.09344 0 0
1:52 pm 13:52 Mostly Sunny 57 14 21 -6 25 25 NW 12 19 29.97 1015 10 16.09344 0 0
2:52 pm 14:52 Partly Cloudy 61 16 21 -6 22 22 NW 16 26 29.94 1014 10 16.09344 0 0
3:52 pm 15:52 Mostly Sunny 61 16 19 -7 20 20 NW 18 30 29.94 1014 10 16.09344 0 0
4:52 pm 16:52 Mostly Sunny 63 17 21 -6 20 20 WNW 13 20 29.91 1013 10 16.09344 0 0
5:52 pm 17:52 Partly Cloudy 63 17 19 -7 19 19 NW 15 24 29.91 1013 10 16.09344 0 0
6:52 pm 18:52 Partly Cloudy 61 16 19 -7 20 20 NW 15 24 29.91 1013 10 16.09344 0 0
7:52 pm 19:52 Mostly Cloudy 59 15 19 -7 21 21 NW 7 11 29.94 1014 10 16.09344 0 0
8:52 pm 20:52 Mostly Cloudy 57 14 21 -6 25 25 NNW 7 11 29.94 1014 10 16.09344 0 0
9:52 pm 21:52 Mostly Cloudy 55 13 21 -6 26 26 W 3 6 29.97 1015 10 16.09344 0 0
10:52 pm 22:52 Mostly Cloudy 54 12 23 -5 30 30 WSW 6 9 29.97 1015 10 16.09344 0 0
11:52 pm 23:52 Mostly Cloudy 54 12 23 -5 30 30 NW 7 11 29.94 1014 10 16.09344 0 0

Powered by AerisWeather